Regional Weather Roundup
Issued by NWS Kansas City/Pleasant Hill, MO

Home | Current Version | Previous Version | Text Only | Print | Product List | Glossary On
Versions: 1 2 3 4 5 6 7 8 9 10 11 12 13 14 15 16 17 18 19 20 21 22 23 24 25 26 27 28 29 30 31 32 33 34 35 36 37 38 39 40 41 42 43 44 45 46 47 48 49 50
000
ASUS43 KEAX 271410
RWREAX

WEATHER ROUNDUP FOR EASTERN KANSAS AND NORTHWEST MISSOURI
NATIONAL WEATHER SERVICE KANSAS CITY/PLEASANT HILL MO
900 AM CDT MON MAR 27 2017

KSZ040-057-103>105-MOZ028-029-037-043-271500-
...KANSAS CITY METROPOLITAN AREA...

CITY           SKY/WX    TMP DP  RH WIND       PRES   REMARKS
K.C. INTL      LGT RAIN  46  46 100 N14       29.89S
K.C. DOWNTOWN  LGT RAIN  48  46  93 NE8       29.89R
LEES SUMMIT    LGT RAIN  47  46  97 N13       29.88R FOG
OLATHE - IXD   CLOUDY    46  45  96 N12       29.89R
OLATHE - OJC   LGT RAIN  46  46 100 N10       29.87R FOG
LAWRENCE       CLOUDY    47  46  97 N10       29.89R

$$

MOZ001>008-011>017-020>025-030>033-038>040-044>046-053-054-271500-
...NORTHERN AND CENTRAL MISSOURI...

CITY           SKY/WX    TMP DP  RH WIND       PRES   REMARKS
ST. JOSEPH     LGT RAIN  47  47 100 NE8       29.91S
WARRENSBURG    LGT RAIN  46  45  93 N8        29.86R
WHITEMAN AFB   DRIZZLE   48  48 100 N8        29.84  FOG
CLINTON        RAIN      50  50 100 N7        29.83S VSB 3/4
SEDALIA        LGT RAIN  50  49  96 N7        29.85R FOG
WARSAW         NOT AVBL
CHILLICOTHE      N/A     47  46  97 NE10      29.90S
KIRKSVILLE     CLOUDY    46  46 100 NE10      29.90S

$$

MOZ041-047>049-056>058-063>065-088>090-097-271500-
...EASTERN AND SOUTHERN MISSOURI...

CITY           SKY/WX    TMP DP  RH WIND       PRES   REMARKS
ST. LOUIS INTL RAIN      53  50  89 N6        29.87R FOG
SPIRIT OF STL  LGT RAIN  52  52 100 N3        29.86R FOG
COLUMBIA       LGT RAIN  50  50 100 E10       29.83S
JEFFERSON CITY LGT RAIN  54  51  90 E6        29.83S FOG
ROLLA          CLOUDY    54  54 100 SE8       29.82R
OSAGE BEACH    CLOUDY   N/A N/A N/A NE5       29.82S
SPRINGFIELD    LGT RAIN  56  54  93 S13       29.78S
BRANSON        CLOUDY    54  54 100 SE7       29.83R FOG
JOPLIN         CLOUDY    53  53 100 N7        29.84R
WEST PLAINS    LGT RAIN  55  54  96 CALM      29.85F FOG

$$

IAZ060-094-KSZ022-034>040-054-083-096-NEZ052-066-093-271500-
...KANSAS...SOUTHEAST NEBRASKA AND IOWA...

CITY           SKY/WX    TMP DP  RH WIND       PRES   REMARKS
TOPEKA         CLOUDY    47  47 100 NW8       29.91R
MANHATTAN      CLOUDY    47  45  93 N5        29.94R FOG
EMPORIA        CLOUDY    46  46 100 N8        29.91R
CHANUTE        CLOUDY    49  47  93 N9        29.88R FOG
WICHITA        CLOUDY    48  46  93 NW12      29.93R
OMAHA          CLOUDY    45  39  79 NW5       29.96R
LINCOLN        CLOUDY    44  41  89 N9        29.98R
FALLS CITY     CLOUDY    47  43  86 N9        29.92R
LAMONI         CLOUDY    45  44  97 NE12      29.90S
DES MOINES     CLOUDY    44  40  85 NE5       29.93S

$$




USA.gov is the U.S. government's official web portal to all federal, state and local government web resources and services.